Погода в Семенове

Россия / Нижегородская область     55˚22′05″N   43˚32′44″E
темп.,
°C
ветер,
м/с
пор.,
м/с
влажн.,
%
обл.,
%
осадки,
мм/ч
давл.,
гПа
погр.,
м
16 января, сб
сб1600:00−11˚ссв4795100 0.9 1006322
03:00−12˚ссв61095100 3.5 1003377
06:00−12˚ссв5995100 4.1 999483
09:00−13˚с3696100 6.9 998405
12:00−12˚ссз3495100 1.1 998350
15:00−13˚зсз239698 1.4 99993
18:00−14˚з359697 0.2 999119
21:00−15˚з469797 0.3 1001132
17 января, вс
вс1700:00−17˚з469790 0.1 1003134
03:00−17˚з479795 0.1 1005157
06:00−17˚зсз4796100 0.1 1007258
09:00−20˚зсз359999 0.1 1009106
12:00−20˚зсз349786 0.0 1012208
15:00−22˚зсз239655 0.0 101435
18:00−25˚сз229942 0.0 101620
21:00−27˚сз229946 0.0 101719
18 января, пн
пн1800:00−28˚сз1110063 0.0 101819
03:00−28˚зсз1110072 0.0 101919
06:00−28˚з129960 0.0 101919
09:00−28˚ссз0110063 0.0 102019
12:00−24˚сз1196100 0.0 101940
15:00−24˚зсз1195100 0.0 101920
18:00−24˚ссз1195100 0.0 101920
21:00−24˚с1196100 0.0 101920
19 января, вт
вт1900:00−23˚с1195100 0.0 101820
03:00−22˚с2295100 0.0 101842
06:00−22˚ссв1294100 0.0 101821
09:00−22˚ссв2294100 0.0 101828
12:00−20˚ссв1292100 0.0 1017173
15:00−20˚с1196100 0.0 101632
18:00−20˚с2297100 0.0 101723
21:00−22˚ссв2298100 0.0 101723
20 января, ср
ср2000:00−24˚с2210095 0.0 101820
03:00−23˚ссз229995 0.1 101920
06:00−23˚ссз239994 0.1 101925
09:00−23˚сз239994 0.1 102121
12:00−21˚сз239896 0.0 1022108
15:00−21˚зсз229886 0.0 102220
18:00−22˚з2310022 0.0 102320
21:00−22˚зюз239922 0.0 102420